EW6420 Weather Reports


Display with metric or nautical units.
time (UTC)temp
F
wind
direction
speed
MPH
gust
MPH
rain 1hr
in
rain 24hr
in
rain mn
in
humidity
%
barometer
mb
20260905060005 54 109 0.0 0.0 0.00 0.17 0.15 89 1015.1
20260905054502 54 109 0.0 0.0 0.00 0.18 0.15 88 1015.1
20260905053002 55 109 0.0 0.0 0.00 0.18 0.15 87 1015.2
20260905051502 55 109 0.0 0.0 0.00 0.18 0.15 86 1015.1
20260905050005 56 109 0.0 0.0 0.00 0.18 0.15 85 1015.2
20260905044503 56 109 0.0 0.0 0.00 0.18 0.15 84 1015.2
20260905043003 56 109 0.0 0.0 0.00 0.18 0.15 83 1015.2
20260905040005 57 109 0.0 0.0 0.00 0.18 0.15 82 1015.1
20260905034502 57 109 0.0 0.0 0.00 0.18 0.15 81 1015.1
20260905033001 58 109 0.0 0.0 0.00 0.18 0.15 79 1014.9
20260905031502 58 109 0.0 0.0 0.00 0.18 0.15 77 1014.8
20260905030006 59 109 0.0 0.0 0.00 0.18 0.15 76 1014.6
20260905023003 60 109 0.0 0.0 0.00 0.21 0.15 75 1014.6
20260905021503 60 109 0.0 0.0 0.00 0.21 0.15 73 1014.7
20260905020003 61 109 0.0 0.0 0.00 0.76 0.15 72 1014.5
20260905014501 61 109 0.0 0.0 0.00 0.76 0.15 72 1014.3
20260905013002 61 124 0.0 0.0 0.00 0.76 0.15 72 1014.3
20260905010002 61 189 0.0 2.0 0.00 0.76 0.15 68 1013.8
20260905004503 61 189 1.0 2.0 0.00 0.76 0.15 67 1013.6
20260905001502 61 208 1.0 5.0 0.00 0.76 0.15 68 1014.0
20260905000003 62 178 1.0 8.0 0.00 0.76 0.15 67 1014.0
20260904234501 63 177 2.0 8.0 0.00 0.76 0.15 65 1013.8
20260904233001 64 76 3.0 12.0 0.00 0.76 0.15 64 1013.8
20260904231502 65 216 1.0 5.0 0.00 0.76 0.15 63 1013.6
20260904224502 64 152 0.0 2.0 0.00 0.76 0.15 64 1013.2
20260904223002 64 139 1.0 2.0 0.00 0.76 0.15 68 1013.1
20260904221502 66 180 1.0 2.0 0.00 0.76 0.15 65 1013.0
20260904220007 66 177 0.0 2.0 0.00 0.76 0.15 65 1012.9
20260904213004 65 50 0.0 3.0 0.00 0.76 0.15 68 1012.8
20260904211503 64 86 1.0 4.0 0.00 0.76 0.15 72 1012.7
20260904204502 62 73 0.0 1.0 0.00 0.76 0.15 76 1012.9
20260904201502 61 74 0.0 2.0 0.01 0.76 0.15 76 1012.9
20260904200006 61 74 0.0 3.0 0.01 0.76 0.15 77 1012.8
20260904194501 60 110 0.0 1.0 0.01 0.76 0.15 79 1012.8
20260904193003 59 110 0.0 2.0 0.00 0.75 0.14 81 1012.8
20260904190006 58 81 0.0 2.0 0.00 0.75 0.14 85 1013.0
20260904183002 56 127 0.0 0.0 0.00 0.75 0.14 87 1013.2
20260904181502 56 127 0.0 2.0 0.00 0.75 0.14 91 1013.2
20260904180007 56 187 0.0 2.0 0.00 0.75 0.14 93 1013.2
20260904174500 56 187 0.0 0.0 0.00 0.75 0.14 94 1013.3
20260904173002 55 187 0.0 2.0 0.00 0.75 0.14 95 1013.3
20260904171502 55 187 0.0 0.0 0.00 0.75 0.14 95 1013.2
20260904170005 54 187 0.0 0.0 0.00 0.75 0.14 95 1013.1
20260904164502 54 187 0.0 2.0 0.00 0.76 0.14 95 1013.1
20260904163000 54 187 0.0 2.0 0.00 0.76 0.14 95 1013.1
20260904161502 54 187 0.0 0.0 0.00 0.76 0.14 95 1013.1
20260904160005 54 187 0.0 0.0 0.00 0.76 0.14 96 1013.0
20260904153002 53 187 0.0 0.0 0.00 0.76 0.14 95 1012.6
20260904151502 53 187 0.0 0.0 0.00 0.76 0.14 95 1012.5
20260904150002 52 187 0.0 0.0 0.00 0.76 0.14 95 1012.4
20260904144501 52 187 0.0 0.0 0.00 0.76 0.14 95 1012.3
20260904141500 53 187 0.0 0.0 0.00 0.76 0.14 95 1011.9
20260904140006 52 187 0.0 0.0 0.00 0.76 0.14 95 1011.8
20260904134501 53 187 0.0 0.0 0.00 0.82 0.14 95 1011.6
20260904133001 53 187 0.0 0.0 0.00 0.82 0.14 95 1011.5
20260904131502 53 187 0.0 0.0 0.00 0.82 0.14 95 1011.5
20260904124503 53 187 0.0 0.0 0.00 0.86 0.14 95 1011.4
20260904123001 53 187 0.0 0.0 0.01 0.86 0.14 95 1011.2
20260904121502 53 187 0.0 0.0 0.01 0.86 0.14 95 1011.2
20260904120004 53 187 0.0 0.0 0.01 0.86 0.14 95 1011.1
20260904114500 53 187 0.0 0.0 0.01 0.86 0.14 95 1011.0
20260904113002 53 187 0.0 0.0 0.01 0.85 0.13 95 1010.8
20260904111501 53 187 0.0 0.0 0.02 0.85 0.13 95 1010.7
20260904110001 53 187 0.0 0.0 0.03 0.85 0.13 95 1010.6
20260904104501 53 187 0.0 0.0 0.03 0.85 0.13 95 1010.6
20260904103001 53 187 0.0 0.0 0.03 0.84 0.12 95 1010.6
20260904101501 53 187 0.0 0.0 0.05 0.83 0.11 95 1010.5
20260904100005 53 187 0.0 0.0 0.05 0.82 0.10 95 1010.4
20260904094502 53 187 0.0 0.0 0.07 0.82 0.10 94 1010.4
20260904091501 53 187 0.0 0.0 0.04 0.78 0.06 94 1010.4
20260904090002 53 187 0.0 0.0 0.02 0.76 0.04 94 1010.3
20260904084500 53 187 0.0 0.0 0.01 0.75 0.03 94 1010.4
20260904083001 53 187 0.0 0.0 0.00 0.74 0.02 94 1010.3
20260904081501 53 187 0.0 0.0 0.01 0.74 0.02 94 1010.2
20260904080006 53 187 0.0 0.0 0.02 0.74 0.02 94 1010.2
20260904074504 53 187 0.0 0.0 0.02 0.74 0.02 93 1010.4
20260904073002 53 187 0.0 0.0 0.03 0.74 0.02 93 1010.5
20260904071502 53 187 0.0 0.0 0.03 0.73 0.01 93 1010.4
20260904070004 53 187 0.0 0.0 0.02 0.72 0.72 93 1010.3
20260904064502 53 187 0.0 1.0 0.03 0.72 0.72 93 1010.3
20260904063003 54 187 0.0 0.0 0.02 0.71 0.71 93 1010.3
20260904061502 54 187 0.0 0.0 0.01 0.70 0.70 93 1010.3